Vorticity
6 12 8 5 14 5 11 9 7 7 21 10 7 10 6 17 20 16 14 9 13 17 20 15 16 16 3 11 -1 17 26 -8 16 5 7 7 13 12 -2 32 25 13 14 6 4 26 1
5 10 8 7 14 7 9 7 6 13 17 6 12 15 16 11 14 20 10 7 5 20 13 16 16 16 9 9 42 5 44 10 24 11 13 3 5 4 22 -1 2 29 -18 23 10 -1 11
3 6 9 7 19 10 3 8 11 11 13 6 14 16 20 19 14 7 12 -1 -4 8 11 18 12 14 12 11 38 -8 37 -14 5 4 12 6 11 1 5 10 14 -21 5 13 3 21 2
4 5 12 8 16 9 3 11 10 13 27 10 15 16 20 26 18 5 11 -4 1 -2 8 12 12 16 9 23 18 7 5 26 13 18 12 6 7 10 -8 -9 25 4 17 -6 8 4 12
7 4 12 9 13 8 6 10 14 13 16 28 21 23 22 23 18 5 13 5 1 -3 18 14 12 27 18 11 46 -28 12 8 7 21 3 4 5 7 2 8 10 10 13 6 15 14 2
11 4 12 9 13 7 7 7 20 -2 5 13 41 31 23 15 19 14 10 6 4 14 18 11 11 9 23 26 35 -7 18 11 20 10 11 9 8 4 6 4 -0 13 -5 21 -6 24 12
9 14 11 8 13 7 9 7 6 -4 -8 3 6 43 22 29 18 10 15 9 17 22 22 0 10 -23 31 18 20 -9 -5 -1 17 9 5 5 -4 7 -4 6 -7 4 19 -9 24 -8 15
5 14 11 8 12 5 11 7 3 -1 -7 -3 12 2 41 23 23 20 14 16 16 19 12 2 24 27 18 6 8 16 2 5 15 6 -1 4 1 7 13 10 0 14 21 5 17 19 10
10 7 8 10 10 7 6 9 12 7 -8 -1 12 -2 2 28 32 35 25 13 8 19 23 26 8 22 23 -9 20 2 14 -24 18 7 -1 9 22 -9 17 11 3 10 10 13 -12 22 9
4 10 10 16 10 7 7 9 11 8 6 5 14 9 15 8 12 25 22 10 -19 -2 5 13 -7 15 18 1 -10 32 27 1 32 7 2 21 6 18 14 8 9 5 8 20 7 10 2
3 5 12 12 7 8 4 8 5 7 11 15 12 14 16 -0 3 -5 -10 -17 4 16 5 7 48 12 11 -22 19 5 13 57 32 -0 -29 23 21 2 5 5 10 27 15 12 4 11 9
8 3 14 7 14 9 7 4 4 5 9 12 8 9 15 21 2 3 16 14 23 17 -8 30 30 15 -0 30 -13 18 -15 31 9 9 -38 24 7 7 -0 7 2 4 10 5 10 4 16
21 8 16 9 21 6 10 4 3 5 4 13 10 9 24 17 6 15 16 15 2 17 6 3 16 10 9 13 14 8 -18 15 15 5 5 15 3 -21 15 3 6 6 5 8 6 6 12
2 8 12 11 6 17 4 13 3 1 6 5 5 13 12 9 5 11 12 13 11 29 36 10 15 11 -6 13 10 -7 3 6 1 46 -1 5 26 -18 43 -1 -4 -10 -10 -15 7 6 13
-3 11 4 14 7 5 18 4 13 5 3 7 7 11 13 12 1 4 21 8 14 1 3 14 -2 4 -3 5 19 3 1 9 10 -2 18 4 7 29 48 1 -1 21 6 3 11 9 10
2 10 1 19 7 5 1 13 8 14 5 5 6 1 14 20 9 24 24 16 17 17 2 -5 13 11 5 6 2 10 4 11 15 4 5 13 3 10 14 38 36 2 18 10 5 11 7
14 7 6 18 11 5 8 1 14 7 16 3 9 10 10 6 24 13 14 21 11 -11 -1 13 11 13 13 -1 13 3 8 23 6 0 13 -8 13 22 3 1 16 6 12 -4 5 1 9
-1 5 7 6 11 9 7 3 14 16 9 7 7 17 8 14 10 2 11 7 -3 -1 5 14 16 10 10 11 7 -0 9 16 7 1 5 3 11 7 1 13 -4 -4 14 6 -8 18 5
5 10 7 4 5 8 12 12 10 15 14 18 9 9 11 12 10 17 12 14 -1 -1 3 8 13 10 18 5 7 7 9 2 8 1 11 13 14 5 19 25 17 10 6 -1 -2 -6 8
5 6 5 11 14 15 17 12 10 13 16 12 10 7 7 9 11 16 13 7 1 1 6 2 10 11 13 13 -5 25 12 10 14 14 2 13 14 1 8 12 21 15 12 13 -0 5 -0
4 2 8 14 12 14 16 18 16 15 15 11 15 9 8 10 8 10 12 23 11 8 8 8 12 4 5 9 9 11 8 9 1 -0 5 -2 14 5 1 -2 2 10 15 16 9 -18 10
0 3 10 11 10 12 19 19 24 20 12 12 17 9 7 8 5 5 7 8 11 21 15 16 10 13 6 7 1 21 16 9 -2 18 10 7 4 14 9 7 8 10 4 2 15 19 -3
3 6 7 12 10 12 15 16 20 24 12 11 9 15 5 9 4 4 10 5 4 3 18 19 14 10 9 9 12 2 14 19 9 10 11 6 10 12 15 11 14 33 43 14 6 4 19
5 9 12 11 12 11 11 14 16 21 19 11 10 14 14 8 9 1 7 5 7 2 13 6 9 5 18 15 16 28 10 5 6 13 15 13 9 5 7 13 12 3 13 27 31 8 11
-0 14 10 12 9 8 8 12 15 16 20 11 10 11 12 19 8 9 7 3 6 5 7 6 1 5 7 9 6 4 6 12 15 3 11 9 10 10 0 11 -17 38 16 1 12 21 35
15 14 18 9 8 8 10 13 14 19 18 14 8 10 9 12 27 16 11 2 3 13 10 5 8 7 11 2 5 11 3 3 10 10 11 10 5 -2 13 9 4 5 22 16 6 12 24
11 21 9 10 11 11 14 18 14 16 18 18 10 5 11 10 13 13 21 15 10 -0 -1 10 4 9 5 5 6 10 7 5 6 4 25 9 15 0 3 -1 12 10 12 16 -2 25 13
15 11 6 9 10 17 14 15 15 16 11 17 18 12 -5 0 7 8 6 10 16 16 -7 16 17 14 7 5 7 7 13 5 11 3 13 9 4 23 25 5 19 19 21 -20 9 8 29
11 7 8 11 10 15 12 11 10 9 8 11 12 18 25 38 -23 -1 5 8 13 18 16 12 -17 8 12 16 11 20 8 7 7 -5 23 11 -14 4 -10 20 0 11 9 21 -9 12 16
Height
3102 3097 3090 3084 3076 3070 3064 3055 3046 3037 3029 3023 3017 3011 3006 3001 2999 2997 2997 2997 2997 2996 2995 2996 2998 3001 3005 3009 3016 3021 3029 3038 3043 3049 3054 3059 3066 3072 3078 3082 3088 3091 3099 3103 3105 3104 3110
3101 3095 3088 3081 3074 3067 3059 3051 3041 3034 3025 3019 3012 3005 3000 2996 2995 2994 2994 2995 2995 2994 2993 2993 2994 2997 3001 3005 3011 3016 3023 3034 3039 3045 3051 3056 3064 3072 3079 3082 3086 3088 3095 3097 3102 3102 3106
3100 3093 3086 3080 3073 3065 3057 3048 3039 3032 3023 3016 3007 3001 2995 2991 2992 2992 2991 2993 2992 2991 2991 2991 2991 2994 2996 3002 3007 3014 3020 3028 3035 3043 3049 3055 3064 3072 3076 3080 3084 3088 3093 3095 3099 3100 3103
3098 3092 3084 3078 3071 3063 3056 3048 3040 3031 3021 3013 3003 2996 2990 2986 2987 2989 2989 2990 2990 2990 2989 2989 2990 2991 2990 2999 3003 3011 3019 3026 3034 3041 3049 3056 3062 3071 3073 3078 3081 3087 3091 3093 3096 3097 3100
3096 3090 3082 3077 3070 3062 3056 3048 3040 3032 3022 3011 3001 2993 2987 2985 2984 2986 2986 2988 2988 2988 2988 2988 2989 2990 2994 2996 3001 3009 3017 3026 3032 3039 3047 3055 3060 3067 3073 3076 3082 3084 3085 3089 3094 3095 3097
3096 3089 3082 3076 3069 3062 3056 3049 3041 3034 3023 3012 3000 2991 2986 2984 2983 2984 2985 2986 2986 2986 2987 2988 2989 2993 2993 2996 3002 3011 3018 3024 3032 3036 3045 3052 3057 3062 3069 3074 3073 3075 3081 3085 3089 3090 3092
3095 3088 3082 3075 3069 3063 3056 3049 3042 3036 3026 3016 3005 2994 2987 2985 2983 2983 2985 2986 2988 2987 2986 2990 2990 2989 2992 3000 3005 3011 3016 3025 3031 3037 3041 3049 3053 3053 3057 3065 3074 3078 3081 3083 3087 3086 3088
3094 3087 3081 3075 3068 3063 3057 3051 3043 3036 3029 3020 3010 3002 2992 2988 2985 2984 2985 2986 2986 2988 2989 2989 2990 2991 2994 2999 3007 3012 3018 3024 3028 3033 3042 3049 3048 3056 3063 3068 3073 3075 3077 3081 3084 3085 3086
3094 3086 3081 3075 3069 3063 3058 3052 3045 3038 3032 3025 3015 3008 3002 2994 2989 2989 2988 2988 2989 2989 2991 2994 2994 2997 3000 3007 3011 3013 3020 3022 3029 3036 3039 3042 3046 3054 3060 3065 3070 3074 3076 3079 3082 3082 3083
3092 3086 3080 3074 3069 3063 3059 3053 3047 3041 3035 3029 3021 3015 3010 3006 3000 2997 2996 2995 2994 2994 2998 3003 3002 3004 3007 3009 3014 3015 3020 3025 3027 3036 3042 3046 3049 3051 3058 3063 3069 3071 3075 3076 3078 3081 3082
3091 3085 3079 3074 3069 3063 3059 3055 3049 3043 3037 3031 3023 3019 3017 3012 3010 3005 3004 3000 2998 2997 2997 3004 3004 3005 3006 3013 3016 3018 3020 3020 3024 3030 3039 3041 3046 3051 3056 3062 3067 3070 3072 3075 3077 3079 3079
3089 3084 3079 3073 3069 3063 3059 3055 3050 3045 3039 3032 3027 3021 3018 3015 3011 3010 3005 3001 2999 3000 3000 3007 3009 3011 3012 3014 3017 3019 3021 3023 3026 3033 3035 3039 3044 3049 3054 3059 3066 3067 3071 3075 3077 3078 3078
3087 3082 3076 3072 3068 3064 3058 3053 3050 3045 3040 3035 3029 3024 3020 3017 3014 3011 3008 3005 3004 3007 3015 3016 3015 3016 3017 3019 3021 3023 3022 3023 3028 3033 3037 3039 3044 3047 3052 3057 3061 3066 3070 3074 3077 3077 3072
3085 3080 3075 3071 3066 3062 3058 3053 3049 3046 3041 3037 3031 3027 3024 3020 3016 3013 3011 3010 3009 3015 3017 3019 3019 3019 3020 3022 3024 3026 3028 3029 3032 3033 3035 3039 3047 3047 3046 3053 3056 3062 3066 3065 3064 3063 3064
3083 3078 3074 3069 3065 3060 3057 3053 3049 3046 3042 3038 3033 3029 3025 3023 3020 3016 3015 3012 3018 3018 3021 3023 3024 3025 3025 3025 3026 3029 3030 3032 3033 3034 3037 3039 3043 3044 3045 3050 3057 3059 3062 3064 3064 3062 3064
3080 3076 3073 3068 3064 3060 3056 3052 3049 3045 3042 3038 3035 3031 3026 3024 3022 3019 3018 3017 3020 3021 3023 3024 3026 3026 3027 3027 3029 3030 3032 3033 3034 3036 3037 3040 3044 3046 3046 3049 3052 3056 3061 3064 3063 3063 3058
3077 3073 3070 3065 3061 3057 3053 3050 3046 3043 3041 3037 3035 3031 3029 3026 3024 3024 3022 3020 3023 3024 3024 3026 3026 3026 3027 3029 3030 3032 3034 3035 3036 3037 3038 3039 3043 3050 3050 3051 3053 3054 3056 3059 3060 3059 3055
3074 3070 3066 3063 3059 3056 3051 3046 3043 3040 3039 3036 3034 3032 3030 3027 3028 3025 3025 3024 3024 3025 3025 3025 3026 3026 3029 3030 3032 3033 3034 3035 3036 3038 3040 3040 3042 3046 3049 3048 3050 3050 3055 3058 3059 3059 3058
3071 3067 3062 3059 3056 3053 3049 3044 3040 3037 3036 3035 3033 3032 3030 3027 3027 3026 3025 3026 3026 3026 3026 3026 3026 3027 3028 3030 3034 3034 3034 3035 3036 3038 3040 3041 3043 3045 3048 3050 3048 3048 3050 3052 3054 3054 3055
3068 3064 3059 3055 3053 3048 3043 3040 3037 3034 3032 3033 3033 3031 3030 3028 3027 3026 3026 3026 3027 3026 3026 3027 3027 3028 3029 3031 3031 3032 3033 3035 3036 3037 3039 3040 3041 3042 3043 3043 3043 3044 3045 3048 3050 3052 3052
3065 3061 3057 3051 3046 3044 3040 3036 3032 3030 3028 3030 3030 3030 3029 3028 3027 3026 3026 3025 3025 3026 3025 3026 3027 3028 3030 3031 3032 3032 3033 3033 3035 3037 3038 3040 3040 3041 3041 3041 3041 3042 3042 3044 3044 3046 3049
3061 3057 3052 3047 3043 3040 3036 3031 3028 3026 3025 3026 3027 3028 3028 3027 3026 3026 3026 3026 3025 3024 3024 3025 3026 3027 3029 3031 3032 3032 3032 3033 3035 3035 3037 3038 3039 3040 3040 3039 3039 3038 3039 3039 3039 3040 3043
3057 3055 3048 3044 3040 3036 3032 3028 3024 3023 3022 3022 3023 3024 3025 3025 3025 3026 3027 3026 3025 3025 3025 3024 3026 3027 3028 3029 3028 3029 3030 3031 3033 3035 3036 3038 3038 3039 3039 3038 3037 3035 3030 3032 3033 3035 3038
3055 3050 3044 3041 3036 3032 3030 3027 3023 3021 3020 3019 3019 3020 3021 3022 3024 3024 3023 3024 3025 3025 3025 3026 3026 3027 3028 3027 3028 3028 3029 3030 3031 3032 3033 3035 3036 3037 3037 3037 3036 3027 3026 3026 3027 3030 3032
3052 3046 3042 3039 3035 3030 3027 3025 3022 3019 3017 3017 3016 3017 3017 3017 3019 3021 3021 3022 3023 3024 3025 3025 3026 3027 3027 3027 3029 3030 3030 3031 3029 3030 3031 3033 3034 3035 3035 3034 3028 3024 3023 3025 3025 3026 3025
3048 3043 3038 3034 3031 3029 3023 3020 3018 3017 3015 3014 3013 3013 3014 3015 3015 3017 3018 3019 3021 3022 3023 3023 3024 3025 3027 3028 3029 3029 3028 3028 3028 3028 3028 3030 3032 3034 3034 3034 3027 3023 3022 3023 3025 3025 3024
3041 3038 3035 3032 3027 3024 3021 3018 3015 3014 3012 3012 3011 3010 3011 3011 3011 3012 3013 3015 3016 3018 3020 3020 3021 3023 3025 3026 3028 3028 3027 3026 3026 3025 3025 3027 3029 3030 3031 3030 3024 3022 3021 3022 3026 3027 3023
3038 3035 3032 3029 3025 3023 3018 3016 3013 3011 3011 3010 3008 3007 3007 3007 3007 3007 3008 3009 3011 3013 3015 3015 3020 3019 3021 3023 3024 3023 3023 3022 3022 3023 3022 3023 3026 3026 3028 3028 3023 3018 3020 3023 3022 3022 3023
3035 3033 3030 3027 3023 3019 3017 3015 3011 3010 3009 3008 3006 3003 3002 3001 3003 3002 3003 3004 3006 3007 3009 3011 3012 3013 3016 3017 3019 3019 3018 3019 3018 3019 3018 3022 3020 3021 3022 3020 3017 3017 3018 3018 3019 3020 3020